Stündliche Wetter Holubyne

Heute, 21 Juni, Montag

Zeit Temperatur Niederschläge Wind Luftdruck Luftfeuchtigkeit
00:00 +22°C° 0 mm 1 m/S 738 mmHg 84%
01:00 +22°C° 0 mm 1 m/S 737 mmHg 83%
02:00 +22°C° 0 mm 1 m/S 737 mmHg 82%
03:00 +22°C° 0 mm 1 m/S 737 mmHg 82%
04:00 +21°C° 0 mm 1 m/S 737 mmHg 81%
05:00 +21°C° 0 mm 1 m/S 737 mmHg 81%
06:00 +21°C° 0 mm 1 m/S 737 mmHg 82%
07:00 +22°C° 0 mm 1 m/S 737 mmHg 87%
08:00 +21°C° 0 mm 0 m/S 738 mmHg 85%
09:00 +24°C° 0 mm 1 m/S 738 mmHg 81%
10:00 +25°C° 0 mm 1 m/S 738 mmHg 83%
11:00 +26°C° 0 mm 2 m/S 738 mmHg 82%
12:00 +27°C° 0 mm 2 m/S 738 mmHg 80%
13:00 +27°C° 0 mm 2 m/S 737 mmHg 79%
14:00 +28°C° 0 mm 1 m/S 737 mmHg 76%
15:00 +28°C° 0 mm 2 m/S 737 mmHg 73%
16:00 +29°C° 0 mm 1 m/S 736 mmHg 72%
17:00 +29°C° 0 mm 2 m/S 736 mmHg 74%
18:00 +27°C° 0.8 mm 3 m/S 736 mmHg 88%
19:00 +27°C° 0.1 mm 1 m/S 736 mmHg 85%
20:00 +27°C° 0 mm 1 m/S 736 mmHg 89%
21:00 +26°C° 0 mm 2 m/S 736 mmHg 90%
22:00 +25°C° 0 mm 2 m/S 737 mmHg 93%
23:00 +24°C° 0 mm 2 m/S 737 mmHg 94%

Morgen, 22 Juni, Dienstag

Zeit Temperatur Niederschläge Wind Luftdruck Luftfeuchtigkeit
00:00 +23°C° 0 mm 2 m/S 736 mmHg 95%
01:00 +23°C° 0 mm 2 m/S 736 mmHg 94%
02:00 +23°C° 0 mm 2 m/S 736 mmHg 93%
03:00 +21°C° 0 mm 3 m/S 736 mmHg 93%
04:00 +21°C° 0 mm 3 m/S 736 mmHg 93%
05:00 +21°C° 0 mm 2 m/S 736 mmHg 93%
06:00 +21°C° 0 mm 2 m/S 736 mmHg 92%
07:00 +22°C° 0 mm 4 m/S 737 mmHg 90%
08:00 +23°C° 0 mm 4 m/S 737 mmHg 89%
09:00 +25°C° 0 mm 4 m/S 738 mmHg 88%
10:00 +26°C° 0 mm 4 m/S 738 mmHg 87%
11:00 +27°C° 0 mm 4 m/S 737 mmHg 86%
12:00 +28°C° 0 mm 3 m/S 737 mmHg 84%
13:00 +28°C° 0 mm 4 m/S 737 mmHg 82%
14:00 +29°C° 0 mm 4 m/S 737 mmHg 81%
15:00 +30°C° 0 mm 4 m/S 737 mmHg 80%
16:00 +28°C° 0.6 mm 5 m/S 737 mmHg 82%
17:00 +29°C° 0 mm 3 m/S 737 mmHg 81%
18:00 +27°C° 3.8 mm 2 m/S 738 mmHg 95%
19:00 +27°C° 0.2 mm 3 m/S 737 mmHg 92%
20:00 +27°C° 0 mm 2 m/S 737 mmHg 93%
21:00 +26°C° 0 mm 2 m/S 738 mmHg 96%
22:00 +25°C° 0.1 mm 2 m/S 738 mmHg 97%
23:00 +25°C° 0 mm 2 m/S 738 mmHg 99%

übermorgen, 23 Juni, Mittwoch

Zeit Temperatur Niederschläge Wind Luftdruck Luftfeuchtigkeit
00:00 +24°C° 0 mm 2 m/S 739 mmHg 100%
01:00 +24°C° 0 mm 2 m/S 739 mmHg 100%
02:00 +24°C° 0 mm 2 m/S 739 mmHg 100%
03:00 +24°C° 0 mm 2 m/S 739 mmHg 100%
04:00 +24°C° 0 mm 1 m/S 739 mmHg 100%
05:00 +23°C° 0 mm 1 m/S 739 mmHg 100%
06:00 +23°C° 0 mm 1 m/S 739 mmHg 100%
07:00 +24°C° 0 mm 1 m/S 740 mmHg 100%
08:00 +25°C° 0 mm 1 m/S 740 mmHg 97%
09:00 +25°C° 0 mm 2 m/S 740 mmHg 95%
10:00 +26°C° 0 mm 2 m/S 741 mmHg 95%
11:00 +26°C° 0 mm 2 m/S 741 mmHg 91%
12:00 +27°C° 0 mm 1 m/S 741 mmHg 87%
13:00 +28°C° 0 mm 1 m/S 741 mmHg 85%
14:00 +29°C° 0 mm 1 m/S 741 mmHg 85%
15:00 +29°C° 0 mm 2 m/S 741 mmHg 82%
16:00 +29°C° 0.1 mm 2 m/S 741 mmHg 83%
17:00 +29°C° 0.1 mm 1 m/S 741 mmHg 85%
18:00 +28°C° 0.2 mm 3 m/S 741 mmHg 90%
19:00 +27°C° 0.4 mm 2 m/S 741 mmHg 91%
20:00 +27°C° 0 mm 1 m/S 741 mmHg 94%
21:00 +26°C° 0 mm 1 m/S 741 mmHg 96%
22:00 +26°C° 0.1 mm 1 m/S 741 mmHg 99%
23:00 +25°C° 0.1 mm 1 m/S 742 mmHg 100%

24 Juni, Donnerstag

Zeit Temperatur Niederschläge Wind Luftdruck Luftfeuchtigkeit
00:00 +25°C° 0 mm 1 m/S 742 mmHg 100%
01:00 +25°C° 0 mm 1 m/S 742 mmHg 100%
02:00 +24°C° 0 mm 1 m/S 742 mmHg 100%
03:00 +22°C° 0 mm 0 m/S 742 mmHg 100%
04:00 +22°C° 0 mm 0 m/S 742 mmHg 100%
05:00 +22°C° 0 mm 0 m/S 742 mmHg 100%
06:00 +22°C° 0 mm 0 m/S 742 mmHg 100%
07:00 +22°C° 0 mm 0 m/S 742 mmHg 99%
08:00 +25°C° 0 mm 1 m/S 743 mmHg 97%
09:00 +26°C° 0 mm 1 m/S 743 mmHg 96%
10:00 +27°C° 0 mm 1 m/S 743 mmHg 93%
11:00 +27°C° 0 mm 2 m/S 743 mmHg 91%
12:00 +28°C° 0 mm 2 m/S 743 mmHg 90%
13:00 +28°C° 0 mm 1 m/S 743 mmHg 86%
14:00 +29°C° 0 mm 2 m/S 743 mmHg 86%
15:00 +29°C° 0 mm 2 m/S 742 mmHg 86%
16:00 +29°C° 0.2 mm 2 m/S 742 mmHg 85%
17:00 +29°C° 0.1 mm 1 m/S 742 mmHg 84%
18:00 +29°C° 0 mm 1 m/S 742 mmHg 84%
19:00 +28°C° 0.1 mm 2 m/S 741 mmHg 93%
20:00 +27°C° 0.2 mm 1 m/S 742 mmHg 97%
21:00 +27°C° 0 mm 1 m/S 741 mmHg 97%
22:00 +27°C° 0 mm 1 m/S 742 mmHg 98%
23:00 +26°C° 0 mm 1 m/S 742 mmHg 98%

25 Juni, Freitag

Zeit Temperatur Niederschläge Wind Luftdruck Luftfeuchtigkeit
00:00 +26°C° 0 mm 1 m/S 742 mmHg 98%
01:00 +25°C° 0 mm 1 m/S 741 mmHg 97%
02:00 +25°C° 0 mm 1 m/S 741 mmHg 92%
03:00 +25°C° 0 mm 1 m/S 741 mmHg 89%
04:00 +25°C° 0 mm 2 m/S 741 mmHg 90%
05:00 +24°C° 0 mm 2 m/S 741 mmHg 90%
06:00 +25°C° 0 mm 1 m/S 740 mmHg 90%
07:00 +26°C° 0 mm 2 m/S 741 mmHg 90%
08:00 +27°C° 0 mm 3 m/S 741 mmHg 88%
09:00 +28°C° 0 mm 3 m/S 741 mmHg 86%
10:00 +29°C° 0 mm 2 m/S 741 mmHg 84%
11:00 +29°C° 0 mm 3 m/S 741 mmHg 84%
12:00 +30°C° 0 mm 3 m/S 740 mmHg 84%
13:00 +30°C° 0 mm 3 m/S 740 mmHg 85%
14:00 +31°C° 0 mm 1 m/S 740 mmHg 83%
15:00 +30°C° 0 mm 5 m/S 740 mmHg 66%
16:00 +28°C° 0.3 mm 8 m/S 739 mmHg 68%
17:00 +27°C° 0 mm 3 m/S 739 mmHg 69%
18:00 +28°C° 0 mm 1 m/S 739 mmHg 73%
19:00 +27°C° 0 mm 2 m/S 740 mmHg 84%
20:00 +26°C° 0 mm 1 m/S 740 mmHg 89%
21:00 +26°C° 0 mm 2 m/S 740 mmHg 90%
22:00 +25°C° 0 mm 2 m/S 740 mmHg 85%
23:00 +25°C° 0 mm 1 m/S 740 mmHg 82%

26 Juni, Samstag

Zeit Temperatur Niederschläge Wind Luftdruck Luftfeuchtigkeit
00:00 +24°C° 0 mm 1 m/S 740 mmHg 81%
01:00 +22°C° 0 mm 0 m/S 739 mmHg 81%
02:00 +22°C° 0 mm 0 m/S 739 mmHg 84%
03:00 +21°C° 0 mm 0 m/S 739 mmHg 87%
04:00 +21°C° 0 mm 0 m/S 739 mmHg 91%
05:00 +21°C° 0 mm 0 m/S 740 mmHg 92%
06:00 +21°C° 0 mm 0 m/S 740 mmHg 95%
07:00 +24°C° 0 mm 1 m/S 740 mmHg 96%
08:00 +25°C° 0 mm 1 m/S 740 mmHg 95%
09:00 +26°C° 0 mm 2 m/S 740 mmHg 93%
10:00 +26°C° 0.1 mm 4 m/S 740 mmHg 93%
11:00 +26°C° 0.1 mm 3 m/S 739 mmHg 89%
12:00 +27°C° 0 mm 2 m/S 739 mmHg 85%
13:00 +27°C° 0.2 mm 2 m/S 739 mmHg 87%
14:00 +27°C° 0 mm 3 m/S 739 mmHg 78%
15:00 +27°C° 0.2 mm 3 m/S 739 mmHg 84%
16:00 +26°C° 0.4 mm 3 m/S 738 mmHg 85%
17:00 +26°C° 0.4 mm 4 m/S 739 mmHg 88%
18:00 +22°C° 0.2 mm 3 m/S 738 mmHg 87%
19:00 +23°C° 0 mm 1 m/S 739 mmHg 84%
20:00 +23°C° 0 mm 1 m/S 739 mmHg 86%
21:00 +21°C° 0 mm 0 m/S 739 mmHg 81%
22:00 +22°C° 0 mm 1 m/S 739 mmHg 87%
23:00 +21°C° 0 mm 2 m/S 739 mmHg 93%
Mehr zeigen

Wir brauchen deine Erlaubnis

Meteoprog und unser Service Anbieter werden persönliche Daten aufbewahren, so wie Cookies, Geräte Bezeichnung oder ähnliche Technologien von deinem Gerät und Prozess, so wie Persönliche Daten Inhalte und Werbungen, genauso wie social Media und den Verkehr zu analysieren.

  • Aufbewahrung und/oder Zugang zu deiner Geräte Informationen.

    Cookies, Geräte Bezeichnung oder andere Informationen, können aufbewahrt oder Zugang zu deinem Gerät erhalten, für den Grund, der oben angegeben wird.

  • Personalisierte Werbung und Inhalte, Messungen, Einblick in das Publikum und Produkt Entwicklung.

    Werbungen und Inhalte können personalisiert werden, basierend auf ein Profil. Mehr Daten können besser personalisierte Werbungen und Inhalte hinzufügen. Werbung und Inhalte können gezeigt und gemessen werden. Einblicke über das Publikum, welche die Werbung gesehen haben und den Inhalt, können abgeleitet werden. So wie Daten können genutzt werden, um es zu verbessern oder die Benutzer Erfahrung zu verbessern das System und die Software.

Wenn du “Ich stimme zu” klickst, erlaubst du uns, die Cookies zu benutzen die Geräte Bezeichnung, den Web oder ähnliche Technologien zu benutzen. Deine Settings, können in deinem Gerät bei deinem Browser geändert werden.

Für den bestimmten Zweck, berechtigten Interessen beruhen darauf, mehr als auf den Inhalt. Du kannst mehr darüber in unseren Privaten und Cookie Politik lesen.